Time,TemperatureF,DewpointF,PressureIn,WindDirection,WindDirectionDegrees,WindSpeedMPH,WindSpeedGustMPH,Humidity,HourlyPrecipIn,Conditions,Clouds,dailyrainin,SolarRadiationWatts/m^2,SoftwareType,DateUTC
2016-07-25 00:01:00,61.6,43.8,29.92,ESE,116,0.0,0.0,52,0.00,CLR,SCT,0.00,0.0,WeatherDisplay:10.37,2016-07-25 07:01:00,
2016-07-25 00:06:00,61.5,43.7,29.92,ESE,116,0.0,0.0,52,0.00,CLR,SCT,0.00,0.0,WeatherDisplay:10.37,2016-07-25 07:06:00,
2016-07-25 00:11:00,61.3,43.5,29.92,ESE,116,0.0,0.0,52,0.00,CLR,SCT,0.00,0.0,WeatherDisplay:10.37,2016-07-25 07:11:00,
2016-07-25 00:16:00,61.2,43.4,29.92,ESE,116,0.0,0.0,52,0.00,CLR,SCT,0.00,0.0,WeatherDisplay:10.37,2016-07-25 07:16:00,
2016-07-25 00:21:00,61.0,43.2,29.92,ESE,116,0.0,0.0,52,0.00,CLR,SCT,0.00,0.0,WeatherDisplay:10.37,2016-07-25 07:21:00,
2016-07-25 00:26:00,60.9,43.1,29.92,ESE,116,0.0,0.0,52,0.00,CLR,SCT,0.00,0.0,WeatherDisplay:10.37,2016-07-25 07:26:00,
2016-07-25 00:31:00,60.8,43.1,29.92,ESE,116,0.0,0.0,52,0.00,CLR,SCT,0.00,0.0,WeatherDisplay:10.37,2016-07-25 07:31:00,
2016-07-25 00:36:00,60.7,43.0,29.92,ESE,116,0.0,0.0,52,0.00,CLR,SCT,0.00,0.0,WeatherDisplay:10.37,2016-07-25 07:36:00,
2016-07-25 00:41:00,60.6,43.4,29.92,ESE,116,0.0,0.0,53,0.00,CLR,SCT,0.00,0.0,WeatherDisplay:10.37,2016-07-25 07:41:00,
2016-07-25 00:46:00,60.4,42.7,29.92,ESE,116,0.0,0.0,52,0.00,CLR,SCT,0.00,0.0,WeatherDisplay:10.37,2016-07-25 07:46:00,
2016-07-25 00:51:00,60.3,43.1,29.92,ESE,116,0.0,0.0,53,0.00,CLR,SCT,0.00,0.0,WeatherDisplay:10.37,2016-07-25 07:51:00,
2016-07-25 00:56:00,60.2,43.0,29.92,ESE,116,0.0,0.0,53,0.00,CLR,SCT,0.00,0.0,WeatherDisplay:10.37,2016-07-25 07:56:00,
2016-07-25 01:01:00,60.1,42.9,29.92,ESE,116,0.0,0.0,53,0.00,CLR,SCT,0.00,0.0,WeatherDisplay:10.37,2016-07-25 08:01:00,
2016-07-25 01:06:00,60.0,42.8,29.92,ESE,116,0.0,0.0,53,0.00,CLR,SCT,0.00,0.0,WeatherDisplay:10.37,2016-07-25 08:06:00,
2016-07-25 01:11:00,59.9,42.7,29.92,ESE,116,0.0,0.0,53,0.00,CLR,SCT,0.00,0.0,WeatherDisplay:10.37,2016-07-25 08:11:00,
2016-07-25 01:16:00,59.8,42.1,29.92,ESE,116,0.0,0.0,52,0.00,CLR,SCT,0.00,0.0,WeatherDisplay:10.37,2016-07-25 08:16:00,
2016-07-25 01:21:00,59.8,42.1,29.92,ESE,116,0.0,0.0,52,0.00,CLR,SCT,0.00,0.0,WeatherDisplay:10.37,2016-07-25 08:21:00,
2016-07-25 01:26:00,59.7,42.5,29.92,ESE,116,0.0,0.0,53,0.00,CLR,SCT,0.00,0.0,WeatherDisplay:10.37,2016-07-25 08:26:00,
2016-07-25 01:31:00,59.6,42.4,29.92,ESE,116,0.0,0.0,53,0.00,CLR,SCT,0.00,0.0,WeatherDisplay:10.37,2016-07-25 08:31:00,
2016-07-25 01:36:00,59.5,42.3,29.92,ESE,116,0.0,0.0,53,0.00,CLR,SCT,0.00,0.0,WeatherDisplay:10.37,2016-07-25 08:36:00,
2016-07-25 01:41:00,59.5,42.3,29.92,ESE,116,0.0,0.0,53,0.00,CLR,SCT,0.00,0.0,WeatherDisplay:10.37,2016-07-25 08:41:00,
2016-07-25 01:46:00,59.4,42.3,29.92,ESE,116,0.0,0.0,53,0.00,CLR,SCT,0.00,0.0,WeatherDisplay:10.37,2016-07-25 08:46:00,
2016-07-25 01:51:00,59.4,42.3,29.92,ESE,116,0.0,0.0,53,0.00,CLR,SCT,0.00,0.0,WeatherDisplay:10.37,2016-07-25 08:51:00,
2016-07-25 01:56:00,59.3,42.2,29.92,ESE,115,0.0,0.0,53,0.00,CLR,SCT,0.00,0.0,WeatherDisplay:10.37,2016-07-25 08:56:00,
2016-07-25 02:01:00,59.5,42.3,29.92,NE,53,0.0,0.0,53,0.00,CLR,SCT,0.00,0.0,WeatherDisplay:10.37,2016-07-25 09:01:00,
2016-07-25 02:06:00,59.6,41.9,29.92,NE,53,0.0,0.0,52,0.00,CLR,SCT,0.00,0.0,WeatherDisplay:10.37,2016-07-25 09:06:00,
2016-07-25 02:11:00,59.7,41.5,29.92,NNW,344,2.3,2.3,51,0.00,CLR,SCT,0.00,0.0,WeatherDisplay:10.37,2016-07-25 09:11:00,
2016-07-25 02:16:00,59.8,42.1,29.92,NNW,344,1.1,1.1,52,0.00,CLR,SCT,0.00,0.0,WeatherDisplay:10.37,2016-07-25 09:16:00,
2016-07-25 02:21:00,59.7,42.0,29.92,NNW,344,0.0,0.0,52,0.00,CLR,SCT,0.00,0.0,WeatherDisplay:10.37,2016-07-25 09:21:00,
2016-07-25 02:26:00,59.6,41.9,29.92,NNW,344,0.0,0.0,52,0.00,CLR,SCT,0.00,0.0,WeatherDisplay:10.37,2016-07-25 09:26:00,
2016-07-25 02:31:00,59.5,41.9,29.92,NW,323,2.3,2.3,52,0.00,CLR,SCT,0.00,0.0,WeatherDisplay:10.37,2016-07-25 09:31:00,
2016-07-25 02:36:00,59.6,41.4,29.92,NW,315,0.0,0.0,51,0.00,CLR,SCT,0.00,0.0,WeatherDisplay:10.37,2016-07-25 09:36:00,
2016-07-25 02:41:00,59.6,41.4,29.91,NW,316,1.1,1.1,51,0.00,CLR,SCT,0.00,0.0,WeatherDisplay:10.37,2016-07-25 09:41:00,
2016-07-25 02:46:00,59.6,41.4,29.91,NW,316,1.1,1.1,51,0.00,CLR,SCT,0.00,0.0,WeatherDisplay:10.37,2016-07-25 09:46:00,
2016-07-25 02:51:00,59.6,41.9,29.91,NW,315,2.3,2.3,52,0.00,CLR,SCT,0.00,0.0,WeatherDisplay:10.37,2016-07-25 09:51:00,
2016-07-25 02:56:00,59.6,41.4,29.91,NW,316,2.3,2.3,51,0.00,CLR,SCT,0.00,0.0,WeatherDisplay:10.37,2016-07-25 09:56:00,
2016-07-25 03:01:00,59.5,41.3,29.91,NW,316,2.0,2.0,51,0.00,CLR,SCT,0.00,0.0,WeatherDisplay:10.37,2016-07-25 10:01:00,
2016-07-25 03:06:00,59.6,41.4,29.91,NNW,329,0.0,0.0,51,0.00,CLR,SCT,0.00,0.0,WeatherDisplay:10.37,2016-07-25 10:06:00,
2016-07-25 03:11:00,59.5,41.3,29.91,NNW,329,0.0,0.0,51,0.00,CLR,SCT,0.00,0.0,WeatherDisplay:10.37,2016-07-25 10:11:00,
2016-07-25 03:16:00,59.4,41.3,29.91,NNW,329,1.1,1.1,51,0.00,CLR,SCT,0.00,0.0,WeatherDisplay:10.37,2016-07-25 10:16:00,
2016-07-25 03:21:00,59.4,41.3,29.91,NNW,329,1.1,1.1,51,0.00,CLR,SCT,0.00,0.0,WeatherDisplay:10.37,2016-07-25 10:21:00,
2016-07-25 03:26:00,59.2,41.1,29.91,NNW,347,1.1,1.1,51,0.00,CLR,SCT,0.00,0.0,WeatherDisplay:10.37,2016-07-25 10:26:00,
2016-07-25 03:31:00,59.2,41.1,29.91,NNW,347,2.3,2.3,51,0.00,CLR,SCT,0.00,0.0,WeatherDisplay:10.37,2016-07-25 10:31:00,
2016-07-25 03:36:00,59.1,41.0,29.91,NNW,347,1.1,0.0,51,0.00,CLR,SCT,0.00,0.0,WeatherDisplay:10.37,2016-07-25 10:36:00,
2016-07-25 03:41:00,59.0,41.4,29.91,NNW,347,1.0,1.0,52,0.00,CLR,SCT,0.00,0.0,WeatherDisplay:10.37,2016-07-25 10:41:00,
2016-07-25 03:46:00,58.9,41.3,29.91,NNW,346,2.3,2.3,52,0.00,CLR,SCT,0.00,0.0,WeatherDisplay:10.37,2016-07-25 10:46:00,
2016-07-25 03:51:00,58.8,40.7,29.92,NNW,346,1.1,1.1,51,0.00,CLR,SCT,0.00,0.0,WeatherDisplay:10.37,2016-07-25 10:51:00,
2016-07-25 03:56:00,58.8,40.2,29.92,NNW,346,2.3,2.3,50,0.00,CLR,SCT,0.00,0.0,WeatherDisplay:10.37,2016-07-25 10:56:00,
2016-07-25 04:01:00,58.7,40.1,29.92,NNW,346,0.0,0.0,50,0.00,CLR,SCT,0.00,0.0,WeatherDisplay:10.37,2016-07-25 11:01:00,
2016-07-25 04:06:00,58.6,40.5,29.92,NNW,346,1.1,1.1,51,0.00,CLR,SCT,0.00,0.0,WeatherDisplay:10.37,2016-07-25 11:06:00,
2016-07-25 04:11:00,58.5,40.9,29.92,NW,318,2.3,2.3,52,0.00,CLR,SCT,0.00,0.0,WeatherDisplay:10.37,2016-07-25 11:11:00,
2016-07-25 04:16:00,58.4,40.3,29.92,NW,318,0.0,0.0,51,0.00,CLR,SCT,0.00,0.0,WeatherDisplay:10.37,2016-07-25 11:16:00,
2016-07-25 04:21:00,58.4,40.3,29.92,NW,318,1.1,1.1,51,0.00,CLR,SCT,0.00,0.0,WeatherDisplay:10.37,2016-07-25 11:21:00,
2016-07-25 04:26:00,58.2,40.1,29.92,NW,318,1.1,1.1,51,0.00,CLR,SCT,0.00,0.0,WeatherDisplay:10.37,2016-07-25 11:26:00,
2016-07-25 04:31:00,58.1,40.1,29.92,NW,318,0.0,0.0,51,0.00,CLR,SCT,0.00,0.0,WeatherDisplay:10.37,2016-07-25 11:31:00,
2016-07-25 04:36:00,58.0,40.0,29.92,NW,318,0.0,0.1,51,0.00,CLR,SCT,0.00,0.0,WeatherDisplay:10.37,2016-07-25 11:36:00,
2016-07-25 04:41:00,57.9,39.9,29.92,NW,318,1.1,1.1,51,0.00,CLR,SCT,0.00,0.0,WeatherDisplay:10.37,2016-07-25 11:41:00,
2016-07-25 04:46:00,57.9,39.9,29.92,NW,318,1.1,1.1,51,0.00,CLR,SCT,0.00,0.0,WeatherDisplay:10.37,2016-07-25 11:46:00,
2016-07-25 04:51:00,57.9,39.9,29.92,NW,323,2.3,2.3,51,0.00,CLR,SCT,0.00,0.0,WeatherDisplay:10.37,2016-07-25 11:51:00,
2016-07-25 04:56:00,58.0,39.5,29.92,NW,323,1.1,1.1,50,0.00,CLR,SCT,0.00,0.0,WeatherDisplay:10.37,2016-07-25 11:56:00,
2016-07-25 05:01:00,58.1,39.5,29.92,NW,323,1.1,1.1,50,0.00,CLR,SCT,0.00,0.0,WeatherDisplay:10.37,2016-07-25 12:01:00,
2016-07-25 05:06:00,58.0,39.5,29.92,NW,323,1.1,1.1,50,0.00,CLR,SCT,0.00,0.0,WeatherDisplay:10.37,2016-07-25 12:06:00,
2016-07-25 05:11:00,58.0,39.5,29.92,NW,324,3.5,3.5,50,0.00,CLR,SCT,0.00,0.0,WeatherDisplay:10.37,2016-07-25 12:11:00,
2016-07-25 05:16:00,57.9,39.4,29.92,NW,324,2.3,2.3,50,0.00,CLR,SCT,0.00,0.0,WeatherDisplay:10.37,2016-07-25 12:16:00,
2016-07-25 05:21:00,57.9,39.9,29.92,NW,323,2.3,2.3,51,0.00,CLR,SCT,0.00,0.0,WeatherDisplay:10.37,2016-07-25 12:21:00,
2016-07-25 05:26:00,57.8,39.3,29.92,NNW,327,1.0,0.0,50,0.00,CLR,SCT,0.00,0.0,WeatherDisplay:10.37,2016-07-25 12:26:00,
2016-07-25 05:31:00,57.8,39.3,29.92,NNW,327,1.0,0.0,50,0.00,CLR,SCT,0.00,0.0,WeatherDisplay:10.37,2016-07-25 12:31:00,
2016-07-25 05:36:00,57.7,39.2,29.92,NNW,328,1.1,1.1,50,0.00,CLR,SCT,0.00,0.0,WeatherDisplay:10.37,2016-07-25 12:36:00,
2016-07-25 05:41:00,57.6,39.1,29.92,NNW,328,2.3,2.3,50,0.00,CLR,SCT,0.00,0.0,WeatherDisplay:10.37,2016-07-25 12:41:00,
2016-07-25 05:46:00,57.6,39.6,29.93,NNW,328,2.3,2.3,51,0.00,CLR,SCT,0.00,0.0,WeatherDisplay:10.37,2016-07-25 12:46:00,
2016-07-25 05:51:00,57.6,39.6,29.93,NNW,328,1.1,0.0,51,0.00,CLR,SCT,0.00,0.0,WeatherDisplay:10.37,2016-07-25 12:51:00,
2016-07-25 05:56:00,57.5,39.0,29.93,NNW,328,0.0,0.0,50,0.00,CLR,SCT,0.00,0.0,WeatherDisplay:10.37,2016-07-25 12:56:00,
2016-07-25 06:01:00,57.5,39.0,29.93,NNW,328,1.1,1.1,50,0.00,CLR,SCT,0.00,0.0,WeatherDisplay:10.37,2016-07-25 13:01:00,
2016-07-25 06:06:00,57.5,39.0,29.93,NNW,328,2.0,2.0,50,0.00,CLR,SCT,0.00,0.0,WeatherDisplay:10.37,2016-07-25 13:06:00,
2016-07-25 06:11:00,57.5,39.0,29.93,NNW,328,0.0,0.0,50,0.00,CLR,SCT,0.00,0.0,WeatherDisplay:10.37,2016-07-25 13:11:00,
2016-07-25 06:16:00,57.5,39.0,29.94,NNW,328,1.0,1.0,50,0.00,CLR,SCT,0.00,0.0,WeatherDisplay:10.37,2016-07-25 13:16:00,
2016-07-25 06:21:00,57.5,39.5,29.94,NNW,328,1.1,1.1,51,0.00,CLR,SCT,0.00,0.0,WeatherDisplay:10.37,2016-07-25 13:21:00,
2016-07-25 06:26:00,57.5,39.5,29.94,NNE,30,1.1,1.1,51,0.00,CLR,SCT,0.00,0.0,WeatherDisplay:10.37,2016-07-25 13:26:00,
2016-07-25 06:31:00,57.5,39.0,29.94,North,350,1.1,1.1,50,0.00,CLR,SCT,0.00,0.0,WeatherDisplay:10.37,2016-07-25 13:31:00,
2016-07-25 06:36:00,57.5,39.5,29.94,North,350,0.0,0.0,51,0.00,CLR,SCT,0.00,0.0,WeatherDisplay:10.37,2016-07-25 13:36:00,
2016-07-25 06:41:00,57.4,39.9,29.94,North,350,1.1,0.0,52,0.00,CLR,SCT,0.00,0.0,WeatherDisplay:10.37,2016-07-25 13:41:00,
2016-07-25 06:46:00,57.3,39.8,29.94,North,350,1.1,1.1,52,0.00,CLR,SCT,0.00,0.0,WeatherDisplay:10.37,2016-07-25 13:46:00,
2016-07-25 06:51:00,57.3,40.3,29.94,North,355,1.1,0.0,53,0.00,CLR,SCT,0.00,0.0,WeatherDisplay:10.37,2016-07-25 13:51:00,
2016-07-25 06:56:00,57.3,39.8,29.94,North,355,1.1,0.0,52,0.00,CLR,SCT,0.00,0.0,WeatherDisplay:10.37,2016-07-25 13:56:00,
2016-07-25 07:01:00,57.3,40.3,29.94,North,355,1.1,1.1,53,0.00,CLR,SCT,0.00,0.0,WeatherDisplay:10.37,2016-07-25 14:01:00,
2016-07-25 07:06:00,57.4,40.4,29.95,North,355,0.0,0.0,53,0.00,CLR,SCT,0.00,0.0,WeatherDisplay:10.37,2016-07-25 14:06:00,
2016-07-25 07:11:00,57.4,40.9,29.94,North,355,0.0,0.0,54,0.00,CLR,SCT,0.00,0.0,WeatherDisplay:10.37,2016-07-25 14:11:00,
2016-07-25 07:16:00,57.5,41.4,29.95,North,360,0.0,0.0,55,0.00,CLR,SCT,0.00,0.0,WeatherDisplay:10.37,2016-07-25 14:16:00,
2016-07-25 07:21:00,57.7,41.6,29.95,NNW,337,2.3,2.3,55,0.00,CLR,SCT,0.00,0.0,WeatherDisplay:10.37,2016-07-25 14:21:00,
2016-07-25 07:26:00,58.1,42.0,29.95,NNW,333,0.0,0.0,55,0.00,CLR,SCT,0.00,0.0,WeatherDisplay:10.37,2016-07-25 14:26:00,
2016-07-25 07:31:00,58.4,42.3,29.95,NNW,333,1.1,1.1,55,0.00,CLR,SCT,0.00,0.0,WeatherDisplay:10.37,2016-07-25 14:31:00,
2016-07-25 07:36:00,58.6,42.9,29.95,NNW,333,0.0,0.0,56,0.00,CLR,SCT,0.00,0.0,WeatherDisplay:10.37,2016-07-25 14:36:00,
2016-07-25 07:41:00,58.7,44.0,29.95,NNW,333,1.1,0.0,58,0.00,CLR,SCT,0.00,0.0,WeatherDisplay:10.37,2016-07-25 14:41:00,
2016-07-25 07:46:00,58.9,44.1,29.95,NNW,346,1.1,1.1,58,0.00,CLR,SCT,0.00,0.0,WeatherDisplay:10.37,2016-07-25 14:46:00,
2016-07-25 07:51:00,59.1,44.3,29.95,NNW,346,1.1,1.1,58,0.00,CLR,SCT,0.00,0.0,WeatherDisplay:10.37,2016-07-25 14:51:00,
2016-07-25 07:56:00,59.4,44.6,29.95,NNW,338,1.1,1.1,58,0.00,CLR,SCT,0.00,0.0,WeatherDisplay:10.37,2016-07-25 14:56:00,
2016-07-25 08:06:00,60.1,44.8,29.95,NNW,338,0.0,0.2,57,0.00,CLR,SCT,0.00,0.0,WeatherDisplay:10.37,2016-07-25 15:06:00,
2016-07-25 08:11:00,60.4,45.1,29.95,NNW,338,1.1,1.1,57,0.00,CLR,SCT,0.00,0.0,WeatherDisplay:10.37,2016-07-25 15:11:00,
2016-07-25 08:16:00,60.8,45.5,29.95,NNW,338,1.1,0.0,57,0.00,CLR,SCT,0.00,0.0,WeatherDisplay:10.37,2016-07-25 15:16:00,
2016-07-25 08:21:00,61.2,45.8,29.95,NNW,338,1.1,1.1,57,0.00,CLR,SCT,0.00,0.0,WeatherDisplay:10.37,2016-07-25 15:21:00,
2016-07-25 08:26:00,61.7,45.8,29.95,NNW,338,1.1,0.0,56,0.00,CLR,SCT,0.00,0.0,WeatherDisplay:10.37,2016-07-25 15:26:00,
2016-07-25 08:31:00,62.1,46.7,29.95,NNW,338,0.0,0.0,57,0.00,CLR,SCT,0.00,0.0,WeatherDisplay:10.37,2016-07-25 15:31:00,
2016-07-25 08:36:00,62.6,47.1,29.95,NNW,338,0.0,0.0,57,0.00,CLR,SCT,0.00,0.0,WeatherDisplay:10.37,2016-07-25 15:36:00,
2016-07-25 08:41:00,63.2,47.7,29.95,NNW,339,1.1,1.1,57,0.00,CLR,SCT,0.00,0.0,WeatherDisplay:10.37,2016-07-25 15:41:00,
2016-07-25 08:46:00,63.7,47.7,29.95,NNW,339,1.1,1.1,56,0.00,CLR,SCT,0.00,0.0,WeatherDisplay:10.37,2016-07-25 15:46:00,
2016-07-25 08:51:00,64.3,48.7,29.95,NNW,339,1.1,1.1,57,0.00,CLR,SCT,0.00,0.0,WeatherDisplay:10.37,2016-07-25 15:51:00,
2016-07-25 08:56:00,64.8,48.7,29.94,NNW,339,1.1,1.1,56,0.00,CLR,SCT,0.00,0.0,WeatherDisplay:10.37,2016-07-25 15:56:00,
2016-07-25 09:01:00,65.5,48.9,29.94,NNW,342,1.1,1.1,55,0.00,CLR,SCT,0.00,0.0,WeatherDisplay:10.37,2016-07-25 16:01:00,
2016-07-25 09:06:00,66.2,49.6,29.94,NNW,342,1.1,1.1,55,0.00,CLR,SCT,0.00,0.0,WeatherDisplay:10.37,2016-07-25 16:06:00,
2016-07-25 09:11:00,66.9,49.7,29.94,NNW,342,1.1,1.1,54,0.00,CLR,SCT,0.00,0.0,WeatherDisplay:10.37,2016-07-25 16:11:00,
2016-07-25 09:16:00,67.6,49.9,29.94,NNW,342,0.0,0.0,53,0.00,CLR,SCT,0.00,0.0,WeatherDisplay:10.37,2016-07-25 16:16:00,
2016-07-25 09:21:00,68.2,50.4,29.94,NNW,342,0.0,0.0,53,0.00,CLR,SCT,0.00,0.0,WeatherDisplay:10.37,2016-07-25 16:21:00,
2016-07-25 09:26:00,68.9,51.1,29.94,NNW,342,0.0,0.0,53,0.00,CLR,SCT,0.00,0.0,WeatherDisplay:10.37,2016-07-25 16:26:00,
2016-07-25 09:31:00,69.6,51.2,29.94,NNW,342,1.1,0.0,52,0.00,CLR,SCT,0.00,0.0,WeatherDisplay:10.37,2016-07-25 16:31:00,
2016-07-25 09:36:00,70.5,51.0,29.94,NNW,342,0.0,0.1,50,0.00,CLR,SCT,0.00,0.0,WeatherDisplay:10.37,2016-07-25 16:36:00,
2016-07-25 09:41:00,71.9,51.7,29.94,NNW,342,0.0,0.0,49,0.00,CLR,SCT,0.00,0.0,WeatherDisplay:10.37,2016-07-25 16:41:00,
2016-07-25 09:46:00,73.4,52.5,29.94,NNW,342,0.0,0.0,48,0.00,CLR,SCT,0.00,0.0,WeatherDisplay:10.37,2016-07-25 16:46:00,
2016-07-25 09:51:00,74.6,51.9,29.94,NNW,342,0.0,0.0,45,0.00,CLR,SCT,0.00,0.0,WeatherDisplay:10.37,2016-07-25 16:51:00,
2016-07-25 09:56:00,75.8,52.9,29.93,NNW,342,0.0,0.0,45,0.00,CLR,SCT,0.00,0.0,WeatherDisplay:10.37,2016-07-25 16:56:00,
2016-07-25 10:01:00,76.9,53.9,29.94,NNW,342,0.0,0.0,45,0.00,CLR,SCT,0.00,0.0,WeatherDisplay:10.37,2016-07-25 17:01:00,
2016-07-25 10:06:00,77.7,53.4,29.94,NNW,343,1.1,0.0,43,0.00,CLR,SCT,0.00,0.0,WeatherDisplay:10.37,2016-07-25 17:06:00,
2016-07-25 10:11:00,78.4,51.4,29.94,NNW,343,0.0,0.0,39,0.00,CLR,SCT,0.00,0.0,WeatherDisplay:10.37,2016-07-25 17:11:00,
2016-07-25 10:16:00,79.0,55.2,29.94,NNW,344,2.3,2.3,44,0.00,CLR,SCT,0.00,0.0,WeatherDisplay:10.37,2016-07-25 17:16:00,
2016-07-25 10:21:00,79.0,56.5,29.94,NNW,344,1.1,1.1,46,0.00,CLR,SCT,0.00,0.0,WeatherDisplay:10.37,2016-07-25 17:21:00,
2016-07-25 10:26:00,79.4,58.0,29.93,NNW,344,1.1,1.1,48,0.00,CLR,SCT,0.00,0.0,WeatherDisplay:10.37,2016-07-25 17:26:00,
2016-07-25 10:31:00,79.7,53.2,29.93,NNW,344,0.0,0.0,40,0.00,CLR,SCT,0.00,0.0,WeatherDisplay:10.37,2016-07-25 17:31:00,
2016-07-25 10:36:00,80.3,55.1,29.94,NNW,344,1.0,0.0,42,0.00,CLR,SCT,0.00,0.0,WeatherDisplay:10.37,2016-07-25 17:36:00,
2016-07-25 10:41:00,80.9,51.4,29.94,NNW,344,2.3,2.3,36,0.00,CLR,SCT,0.00,0.0,WeatherDisplay:10.37,2016-07-25 17:41:00,
2016-07-25 10:46:00,81.8,46.4,29.94,NNW,344,1.1,1.1,29,0.00,CLR,SCT,0.00,0.0,WeatherDisplay:10.37,2016-07-25 17:46:00,
2016-07-25 10:51:00,82.5,54.3,29.94,East,82,3.5,3.5,38,0.00,CLR,SCT,0.00,0.0,WeatherDisplay:10.37,2016-07-25 17:51:00,
2016-07-25 10:56:00,82.9,47.4,29.94,ESE,114,3.5,3.5,29,0.00,CLR,SCT,0.00,0.0,WeatherDisplay:10.37,2016-07-25 17:56:00,
2016-07-25 11:01:00,83.4,52.1,29.94,ESE,114,1.1,1.1,34,0.00,CLR,SCT,0.00,0.0,WeatherDisplay:10.37,2016-07-25 18:01:00,
2016-07-25 11:06:00,83.9,46.3,29.94,East,101,2.3,2.3,27,0.00,CLR,SCT,0.00,0.0,WeatherDisplay:10.37,2016-07-25 18:06:00,
2016-07-25 11:11:00,84.3,45.7,29.94,ESE,109,6.9,6.9,26,0.00,CLR,SCT,0.00,0.0,WeatherDisplay:10.37,2016-07-25 18:11:00,
2016-07-25 11:16:00,84.6,44.9,29.94,ESE,114,3.5,3.5,25,0.00,CLR,SCT,0.00,0.0,WeatherDisplay:10.37,2016-07-25 18:16:00,
2016-07-25 11:21:00,84.9,45.1,29.94,East,80,2.0,2.0,25,0.00,CLR,SCT,0.00,0.0,WeatherDisplay:10.37,2016-07-25 18:21:00,
2016-07-25 11:26:00,85.2,44.3,29.94,ESE,103,3.5,3.5,24,0.00,CLR,SCT,0.00,0.0,WeatherDisplay:10.37,2016-07-25 18:26:00,
2016-07-25 11:31:00,85.5,45.7,29.94,ESE,117,7.0,7.0,25,0.00,CLR,SCT,0.00,0.0,WeatherDisplay:10.37,2016-07-25 18:31:00,
2016-07-25 11:36:00,85.3,44.4,29.94,ESE,112,6.9,6.9,24,0.00,CLR,SCT,0.00,0.0,WeatherDisplay:10.37,2016-07-25 18:36:00,
2016-07-25 11:41:00,85.2,45.4,29.94,SSW,207,2.3,2.3,25,0.00,CLR,SCT,0.00,0.0,WeatherDisplay:10.37,2016-07-25 18:41:00,
2016-07-25 11:46:00,85.2,43.2,29.94,ESE,110,6.9,6.9,23,0.00,CLR,SCT,0.00,0.0,WeatherDisplay:10.37,2016-07-25 18:46:00,
2016-07-25 11:51:00,85.6,45.7,29.94,ESE,116,3.0,3.0,25,0.00,CLR,SCT,0.00,0.0,WeatherDisplay:10.37,2016-07-25 18:51:00,
2016-07-25 11:56:00,85.7,43.6,29.94,West,267,3.5,3.5,23,0.00,CLR,SCT,0.00,0.0,WeatherDisplay:10.37,2016-07-25 18:56:00,
2016-07-25 12:01:00,86.2,45.2,29.94,ESE,111,3.5,3.5,24,0.00,CLR,SCT,0.00,0.0,WeatherDisplay:10.37,2016-07-25 19:01:00,
2016-07-25 12:06:00,86.6,44.4,29.94,SE,125,8.1,8.1,23,0.00,CLR,SCT,0.00,0.0,WeatherDisplay:10.37,2016-07-25 19:06:00,
2016-07-25 12:11:00,86.3,41.8,29.94,ESE,107,7.0,7.0,21,0.00,CLR,SCT,0.00,0.0,WeatherDisplay:10.37,2016-07-25 19:11:00,
2016-07-25 12:16:00,86.5,43.1,29.94,ESE,121,4.0,4.0,22,0.00,CLR,SCT,0.00,0.0,WeatherDisplay:10.37,2016-07-25 19:16:00,
2016-07-25 12:21:00,86.9,44.6,29.94,SE,128,5.8,5.8,23,0.00,CLR,SCT,0.00,0.0,WeatherDisplay:10.37,2016-07-25 19:21:00,
2016-07-25 12:26:00,87.0,42.3,29.94,East,92,3.5,3.5,21,0.00,CLR,SCT,0.00,0.0,WeatherDisplay:10.37,2016-07-25 19:26:00,
2016-07-25 12:31:00,87.2,43.7,29.94,SSE,161,9.0,9.0,22,0.00,CLR,SCT,0.00,0.0,WeatherDisplay:10.37,2016-07-25 19:31:00,
2016-07-25 12:36:00,87.5,45.1,29.94,ESE,121,2.3,2.3,23,0.00,CLR,SCT,0.00,0.0,WeatherDisplay:10.37,2016-07-25 19:36:00,
2016-07-25 12:41:00,87.8,45.4,29.94,East,96,9.2,9.2,23,0.00,CLR,SCT,0.00,0.0,WeatherDisplay:10.37,2016-07-25 19:41:00,
2016-07-25 12:46:00,88.2,46.8,29.94,ESE,123,5.8,5.8,24,0.00,CLR,SCT,0.00,0.0,WeatherDisplay:10.37,2016-07-25 19:46:00,
2016-07-25 12:51:00,88.6,44.9,29.93,West,273,3.5,3.5,22,0.00,CLR,SCT,0.00,0.0,WeatherDisplay:10.37,2016-07-25 19:51:00,
2016-07-25 12:56:00,88.9,43.9,29.93,WNW,293,2.3,2.3,21,0.00,CLR,SCT,0.00,0.0,WeatherDisplay:10.37,2016-07-25 19:56:00,
2016-07-25 13:01:00,89.3,45.5,29.93,SSE,150,5.8,5.8,22,0.00,CLR,SCT,0.00,0.0,WeatherDisplay:10.37,2016-07-25 20:01:00,
2016-07-25 13:06:00,89.7,44.6,29.93,SE,127,8.1,8.1,21,0.00,CLR,SCT,0.00,0.0,WeatherDisplay:10.37,2016-07-25 20:06:00,
2016-07-25 13:11:00,89.6,44.5,29.93,SE,138,3.5,3.5,21,0.00,CLR,SCT,0.00,0.0,WeatherDisplay:10.37,2016-07-25 20:11:00,
2016-07-25 13:16:00,89.6,45.7,29.93,ESE,104,6.9,6.9,22,0.00,CLR,SCT,0.00,0.0,WeatherDisplay:10.37,2016-07-25 20:16:00,
2016-07-25 13:21:00,89.0,44.0,29.93,ESE,115,5.8,5.8,21,0.00,CLR,SCT,0.00,0.0,WeatherDisplay:10.37,2016-07-25 20:21:00,
2016-07-25 13:26:00,89.0,46.4,29.93,SE,144,2.3,2.3,23,0.00,CLR,SCT,0.00,0.0,WeatherDisplay:10.37,2016-07-25 20:26:00,
2016-07-25 13:31:00,89.3,44.2,29.93,ESE,110,6.0,6.0,21,0.00,CLR,SCT,0.00,0.0,WeatherDisplay:10.37,2016-07-25 20:31:00,
2016-07-25 13:36:00,89.4,46.7,29.93,ESE,111,6.9,6.9,23,0.00,CLR,SCT,0.00,0.0,WeatherDisplay:10.37,2016-07-25 20:36:00,
2016-07-25 13:41:00,89.4,43.0,29.93,ESE,121,3.5,3.5,20,0.00,CLR,SCT,0.00,0.0,WeatherDisplay:10.37,2016-07-25 20:41:00,
2016-07-25 13:46:00,89.5,45.6,29.93,ESE,121,3.5,3.5,22,0.00,CLR,SCT,0.00,0.0,WeatherDisplay:10.37,2016-07-25 20:46:00,
2016-07-25 13:51:00,90.2,49.6,29.93,ESE,116,6.9,6.9,25,0.00,CLR,SCT,0.00,0.0,WeatherDisplay:10.37,2016-07-25 20:51:00,
2016-07-25 13:56:00,90.2,46.2,29.93,WNW,297,4.0,4.0,22,0.00,CLR,SCT,0.00,0.0,WeatherDisplay:10.37,2016-07-25 20:56:00,
2016-07-25 14:01:00,89.7,45.8,29.93,SW,234,3.5,3.5,22,0.00,CLR,SCT,0.00,0.0,WeatherDisplay:10.37,2016-07-25 21:01:00,
2016-07-25 14:06:00,89.9,44.7,29.93,North,5,8.0,8.0,21,0.00,CLR,SCT,0.00,0.0,WeatherDisplay:10.37,2016-07-25 21:06:00,
2016-07-25 14:11:00,89.6,44.5,29.92,WNW,300,4.6,4.6,21,0.00,CLR,SCT,0.00,0.0,WeatherDisplay:10.37,2016-07-25 21:11:00,
2016-07-25 14:16:00,89.3,44.2,29.92,SE,134,3.5,3.5,21,0.00,CLR,SCT,0.00,0.0,WeatherDisplay:10.37,2016-07-25 21:16:00,
2016-07-25 14:21:00,89.3,45.5,29.92,ESE,109,10.4,10.4,22,0.00,CLR,SCT,0.00,0.0,WeatherDisplay:10.37,2016-07-25 21:21:00,
2016-07-25 14:26:00,89.4,44.3,29.92,SSW,207,3.5,3.5,21,0.00,CLR,SCT,0.00,0.0,WeatherDisplay:10.37,2016-07-25 21:26:00,
2016-07-25 14:31:00,89.3,43.0,29.92,WNW,286,4.0,4.0,20,0.00,CLR,SCT,0.00,0.0,WeatherDisplay:10.37,2016-07-25 21:31:00,
2016-07-25 14:36:00,89.2,45.4,29.92,East,100,8.1,8.1,22,0.00,CLR,SCT,0.00,0.0,WeatherDisplay:10.37,2016-07-25 21:36:00,
2016-07-25 14:41:00,89.8,48.2,29.92,ESE,117,9.2,9.2,24,0.00,CLR,SCT,0.00,0.0,WeatherDisplay:10.37,2016-07-25 21:41:00,
2016-07-25 14:46:00,89.9,46.0,29.92,WNW,298,4.6,4.6,22,0.00,CLR,SCT,0.00,0.0,WeatherDisplay:10.37,2016-07-25 21:46:00,
2016-07-25 14:51:00,89.8,45.9,29.92,ESE,117,3.5,3.5,22,0.00,CLR,SCT,0.00,0.0,WeatherDisplay:10.37,2016-07-25 21:51:00,
2016-07-25 14:56:00,90.2,46.2,29.92,WNW,300,5.8,5.8,22,0.00,CLR,SCT,0.00,0.0,WeatherDisplay:10.37,2016-07-25 21:56:00,